STARLINK-36630, 67703

Orbit data source: Space-Track

STARLINK-36630, 67703 is a payload satellite owned by SpaceX/Seattle (US) in SSO that was launched on Sat, 07 Feb 2026 UTC via an FALCON 9 launch vehicle from the Air Force Western Test Range (AFWTR). Payload-class satellites include a variety of spacecraft equipped with specific instruments for various scientific and technological missions. These include communications satellites like Starlink; space stations such as the ISS; scientific satellites like the Hubble; Earth observation satellites from companies like Planet Labs, Umbra, and HawkEye 360; GPS; miniature CubeSats for education and research; and military/defense satellites.

Loading next visibility...
Identifier
67703, 2026-025L
Orbit
SSO
Country
Flag of USUS
Related business
Manufacturer
SpaceX/Seattle
Mission
Operational spacecraft
Bus & Motor
STARLINK V2MO, Unknown motor
Mass
575 kg wet, ~530 kg dry
Launch date (UTC)
2026-02-07 (2 months ago)
Launch vehicle
FALCON 9
Launch site
Air Force Western Test Range (AFWTR)
Object type
Payload
Rocket body
Debris
Shape & HBR
Unknown shape, 17.7 m
Radar Cross Section
RCS unknown

Expand to show TLE details & history
Last TLE update: 7 hours ago

TLE from 7 hours ago
0 STARLINK-36630
1 67703U 26025L   26104.26389187  .00021499  00000-0  64885-3 0  9994
2 67703  97.2854 216.4329 0001179 109.4892 250.6479 15.34291739 11467
Epoch: 2026-04-14T06:20Z
TLE epoch observation values (Epoch: 2026-04-14T06:20:00.257Z)
Latitude
0.00001°
Longitude
-81.01081°
Altitude
466.406 km
Speed
7.633 km/s
True Right ascension
14h 25m 43s
True Declination
0° 00' 00"
Sunlit
Object was in full shadow at epoch
Visualization orbit readout
Latitude
Unknown
Longitude
Unknown
Altitude
Unknown
Speed
Unknown
Apparent Right ascension
Unknown
Apparent Declination
Unknown
Sunlit
N/A
Visualization observer readout
Local Sidereal Time
19:21:37
Azimuth
Unknown
Elevation
Unknown
Doppler factor
Unknown
Orbital elements
Apogee altitude
460.773 km
Perigee altitude
459.16 km
Semi-major axis
6,838.104 km
Eccentricity
0.00012
Inclination
97.2854°
RAAN
216.4329°
Arg. of periapsis
109.4892°
True anomaly
250.63515°
Mean anomaly
250.6479°
Eccentric anomaly
250.64153°
Mean motion
3.83831 °/min
Orbital period
93.79 mins
BSTAR
0.00064885
Loading maneuver chart data...
Computing Atmospheric mass density...
Loading historical data...
Loading historical data...
Loading historical data...
Loading historical data...
Loading historical data...
Loading historical data...
Loading historical data...

Documentation

Showing up to 5 results
|